• Processing (Info)

  • MPEC 2019-R98 : 2019 RC3

    The following Minor Planet Electronic Circular may be linked-to from your own Web pages, but must not otherwise be redistributed electronically.

    A form allowing access to any MPEC is at the bottom of this page.


    Read MPEC 2019-R97 Read MPEC 2019-R99


    M.P.E.C. 2019-R98                            Issued 2019 September 10, 15:21 UT
    
         The Minor Planet Electronic Circulars contain information on unusual
             minor planets and routine data on comets.  They are published
        on behalf of Division F of the International Astronomical Union by the
              Minor Planet Center, Smithsonian Astrophysical Observatory,
                              Cambridge, MA 02138, U.S.A.
    
                 Prepared using the Tamkin Foundation Computer Network
    
                                  MPC@CFA.HARVARD.EDU
                URL https://www.minorplanetcenter.net/    ISSN 1523-6714
    
                                    2019 RC3                                 
    
    
    Observations:
         K19R03C* C2019 09 05.46947 02 57 41.59 -01 01 27.8          21.1 GVER098G96
         K19R03C  C2019 09 05.47293 02 57 41.16 -01 01 16.9          21.0 GVER098G96
         K19R03C  C2019 09 05.47639 02 57 40.72 -01 01 06.1          21.1 GVER098G96
         K19R03C  C2019 09 05.47986 02 57 40.26 -01 00 55.2          21.1 GVER098G96
         K19R03C  C2019 09 05.49519 02 57 38.34 -01 00 07.7          20.7 GVER098G96
         K19R03C  C2019 09 05.49597 02 57 38.24 -01 00 05.0          21.2 GVER098G96
         K19R03C  C2019 09 05.49675 02 57 38.14 -01 00 03.0          20.8 GVER098G96
         K19R03C  C2019 09 05.49750 02 57 38.04 -01 00 00.4          21.5 GVER098G96
         K19R03C KC2019 09 06.36286902 56 01.32 -00 15 16.6          21.4 VuER098H21
         K19R03C KC2019 09 06.36896502 56 00.56 -00 14 57.7          21.4 VuER098H21
         K19R03C KC2019 09 06.37729502 55 59.54 -00 14 32.0          21.6 VuER098H21
         K19R03C KC2019 09 07.01342002 54 46.72 +00 18 05.6          21.5 GVER098L01
         K19R03C KC2019 09 07.01770302 54 46.22 +00 18 19.1          21.3 GVER098L01
         K19R03C KC2019 09 07.02322302 54 45.47 +00 18 36.6          21.6 GVER098L01
         K19R03C KC2019 09 10.34568802 47 55.21 +03 05 46.3          21.2 VuER098H21
         K19R03C KC2019 09 10.35177202 47 54.35 +03 06 04.2          21.2 VuER098H21
    
    Observer details:
    G96 Mt. Lemmon Survey.  Observer H. Groeller.  Measurers B. M. Africano, E. J. 
       Christensen, G. A. Farneth, D. C. Fuls, A. R. Gibbs, A. D. Grauer, H. 
       Groeller, R. A. Kowalski, S. M. Larson, G. J. Leonard, T. A. Pruyne, D. 
       Rankin, R. L. Seaman, F. C. Shelly.  1.5-m reflector + 10K CCD.
    H21 Astronomical Research Observatory, Westfield.  Observer R. Holmes.  
        Measurers S. Foglia, L. Buzzi, T. Linder, R. Holmes.  0.81-m f/4.0 
       astrograph + CCD, 1.3-m f/4.0 astrograph + CCD.
    L01 Visnjan Observatory, Tican.  Observers K. Korlevic, F. Valentine.  Measurer 
       K. Korlevic.  1.0-m f/2.9 reflector + CCD.
    
    Orbital elements:
    2019 RC3                                                 Earth MOID = 0.1240 AU
    Epoch 2019 Apr. 27.0 TT = JDT 2458600.5                 Bell
    M 318.90007              (2000.0)            P               Q
    n   0.47765807     Peri.  296.83808     +0.55927398     +0.82859513
    a   1.6207821      Node     7.32469     -0.67237212     +0.47129277
    e   0.3624651      Incl.   11.46985     -0.48490035     +0.30218080
    P   2.06           H   22.6           G   0.15           U   8
    Residuals in seconds of arc
    190905 G96  0.3+  0.0     190905 G96  0.1-  0.3-    190907 L01  0.6+  0.2-
    190905 G96  0.3+  0.1+    190905 G96  0.2-  0.0     190907 L01  0.1-  0.3+
    190905 G96  0.2+  0.1+    190906 H21  0.7-  0.1+    190910 H21  0.0   0.1+
    190905 G96  0.1-  0.2+    190906 H21  0.4-  0.2+    190910 H21  0.0   0.0
    190905 G96  0.0   0.1-    190906 H21  0.2+  0.1+
    190905 G96  0.0   0.1+    190907 L01  0.0   0.5-
    
    Ephemeris:
    2019 RC3                 a,e,i = 1.62, 0.36, 11                  q = 1.0333
    Date    TT    R. A. (2000) Decl.     Delta      r    Elong.  Phase     V
    2019 08 11    03 26 48.0 -24 36 36   0.2086  1.0529    95.1    73.5    21.9
    ...
    2019 08 26    03 13 37.1 -10 25 28   0.2094  1.0914   107.3    62.2    21.6
    ...
    2019 09 03    03 02 04.0 -03 10 48   0.2122  1.1188   116.2    54.0    21.5
    ...
    2019 09 09    02 50 45.7 +01 59 14   0.2164  1.1420   123.8    47.2    21.3
    2019 09 10    02 48 39.3 +02 49 03   0.2173  1.1460   125.1    46.0    21.3
    2019 09 11    02 46 29.1 +03 38 15   0.2183  1.1501   126.5    44.8    21.3
    ...
    2019 09 17    02 32 13.3 +08 17 54   0.2262  1.1758   134.8    37.3    21.2
    ...
    2019 09 25    02 10 29.2 +13 37 40   0.2423  1.2123   146.3    27.3    21.2
    ...
    2019 10 10    01 28 22.8 +20 09 29   0.2954  1.2859   164.5    12.0    21.2
    
    A. U. Tomatic                (C) Copyright 2019 MPC           M.P.E.C. 2019-R98
    


    Read MPEC 2019-R97 Read MPEC 2019-R99


    MPEC number:

    Enter an MPEC number in one of the following forms:

    • 1997-B01 (the full form)
    • J97B01 (the packed version of the full form)
    • B01 (the abbreviated form)